Pecos, TX

8:29 AM CDT on April 22, 2018 (GMT -0500)
Pecos Municipal

Weather History for KPEQ - September, 2012

Change the Weather History Date:

Tuesday, September 4, 2012

  Actual Average Record
Temperature  
Mean Temperature 86 °F -  
Max Temperature 103 °F 93 °F 106 °F (1959)
Min Temperature 69 °F 63 °F 52 °F (1934)
Cooling Degree Days 21    
Growing Degree Days 36 (Base 50)    
Moisture  
Dew Point 52 °F    
Average Humidity 35    
Maximum Humidity 62    
Minimum Humidity 16    
Precipitation  
Precipitation 0.00 in - - ()
Sea Level Pressure  
Sea Level Pressure 29.92 in    
Wind  
Wind Speed 4 mph (SSE)    
Max Wind Speed 18 mph    
Max Gust Speed 20 mph    
Visibility 10 miles    
Events      
Averages and records for this station are not official NWS values.
T = Trace of Precipitation, MM = Missing Value Source: NWS Daily Summary

Daily Weather History Graph

Daily Weather History Graph

Search for Another Location

Airport or City:

Astronomy

Sep. 04, 2012 Rise Set
Actual Time 7:32 AM CDT 8:13 PM CDT
Civil Twilight 7:07 AM CDT 8:37 PM CDT
Nautical Twilight 6:38 AM CDT 9:06 PM CDT
Astronomical Twilight 6:08 AM CDT 9:36 PM CDT
Moon 10:29 PM CDT (9/4) 11:20 AM CDT (9/4)
Length of Visible Light 13h 30m
Length of Day
12h 41m
Waning Gibbous, 83% of the Moon is Illuminated
Sep 4
Waning Gibbous
Sep 8
Last Quarter
Sep 15
New
Sep 22
First Quarter
Sep 29
Full

Hourly Weather History & Observations

Time (CDT) Temp. Heat Index Dew Point Humidity Pressure Visibility Wind Dir Wind Speed Gust Speed Precip Events Conditions
12:15 AM 79.2 °F - 54.5 °F 42% 29.94 in 10.0 mi SE 6.9 mph - N/A   Clear
12:35 AM 79.2 °F - 54.5 °F 42% 29.94 in 10.0 mi ESE 5.8 mph - N/A   Clear
12:55 AM 77.9 °F - 54.5 °F 44% 29.95 in 10.0 mi ESE 5.8 mph - N/A   Clear
1:15 AM 76.8 °F - 54.7 °F 46% 29.95 in 10.0 mi East 5.8 mph - N/A   Clear
1:35 AM 76.6 °F - 54.7 °F 46% 29.95 in 10.0 mi Calm Calm - N/A   Clear
1:55 AM 79.3 °F - 53.1 °F 40% 29.95 in 10.0 mi Calm Calm - N/A   Clear
2:15 AM 77.9 °F - 53.6 °F 43% 29.95 in 10.0 mi ESE 3.5 mph - N/A   Clear
2:35 AM 75.4 °F - 54.3 °F 48% 29.95 in 10.0 mi WNW 4.6 mph - N/A   Clear
2:55 AM 75.2 °F - 54.7 °F 49% 29.94 in 10.0 mi NE 3.5 mph - N/A   Clear
3:15 AM 75.2 °F - 54.7 °F 49% 29.95 in 10.0 mi Calm Calm - N/A   Clear
3:35 AM 74.8 °F - 55.0 °F 50% 29.95 in 10.0 mi Calm Calm - N/A   Clear
3:55 AM 74.5 °F - 55.4 °F 51% 29.95 in 10.0 mi Calm Calm - N/A   Clear
4:15 AM 74.5 °F - 55.6 °F 52% 29.94 in 10.0 mi East 4.6 mph - N/A   Clear
4:35 AM 72.9 °F - 55.8 °F 55% 29.93 in 10.0 mi Calm Calm - N/A   Clear
4:55 AM 72.1 °F - 55.8 °F 56% 29.93 in 10.0 mi Calm Calm - N/A   Clear
5:15 AM 71.2 °F - 55.8 °F 58% 29.93 in 10.0 mi SE 4.6 mph - N/A   Clear
5:35 AM 69.8 °F - 55.6 °F 61% 29.93 in 10.0 mi SE 4.6 mph - N/A   Clear
5:55 AM 69.4 °F - 55.6 °F 61% 29.93 in 10.0 mi Calm Calm - N/A   Clear
6:15 AM 69.3 °F - 54.7 °F 60% 29.93 in 10.0 mi Calm Calm - N/A   Clear
6:35 AM 69.3 °F - 55.6 °F 62% 29.94 in 10.0 mi Calm Calm - N/A   Clear
6:55 AM 70.0 °F - 55.6 °F 60% 29.95 in 10.0 mi Calm Calm - N/A   Clear
7:15 AM 70.2 °F - 55.4 °F 59% 29.95 in 10.0 mi Calm Calm - N/A   Clear
7:35 AM 70.5 °F - 54.3 °F 56% 29.95 in 10.0 mi Calm Calm - N/A   Clear
7:55 AM 70.7 °F - 55.2 °F 58% 29.96 in 10.0 mi NE 3.5 mph - N/A   Clear
8:15 AM 71.1 °F - 57.4 °F 62% 29.97 in 10.0 mi East 3.5 mph - N/A   Clear
8:35 AM 72.7 °F - 58.1 °F 60% 29.97 in 10.0 mi East 3.5 mph - N/A   Clear
8:55 AM 75.0 °F - 57.9 °F 55% 29.97 in 10.0 mi East 3.5 mph - N/A   Clear
9:15 AM 77.7 °F - 57.9 °F 50% 29.97 in 10.0 mi East 3.5 mph - N/A   Clear
9:35 AM 80.6 °F 80.8 °F 57.4 °F 45% 29.98 in 10.0 mi East 4.6 mph - N/A   Clear
9:55 AM 83.8 °F 83.0 °F 56.3 °F 39% 29.98 in 10.0 mi East 4.6 mph - N/A   Clear
10:15 AM 86.5 °F 84.9 °F 54.9 °F 34% 29.98 in 10.0 mi ESE 3.5 mph - N/A   Clear
10:35 AM 87.6 °F 85.5 °F 53.8 °F 31% 29.98 in 10.0 mi Calm Calm - N/A   Clear
10:55 AM 89.4 °F 87.3 °F 54.3 °F 30% 29.98 in 10.0 mi South 3.5 mph - N/A   Clear
11:15 AM 90.7 °F 88.3 °F 53.6 °F 28% 29.98 in 10.0 mi SW 3.5 mph - N/A   Clear
11:35 AM 92.8 °F 90.6 °F 54.0 °F 27% 29.98 in 10.0 mi South 3.5 mph - N/A   Clear
12:15 PM 95.7 °F - 52.5 °F 23% 29.97 in 10.0 mi West 5.8 mph - N/A   Clear
12:35 PM 97.3 °F - 50.9 °F 21% 29.96 in 10.0 mi Calm Calm - N/A   Clear
12:55 PM 98.1 °F - 50.9 °F 20% 29.95 in 10.0 mi SW 3.5 mph - N/A   Clear
1:15 PM 99.1 °F - 50.9 °F 20% 29.94 in 10.0 mi SSW 8.1 mph - N/A   Clear
1:35 PM 100.4 °F - 49.8 °F 18% 29.93 in 10.0 mi NW 8.1 mph - N/A   Clear
1:55 PM 100.6 °F - 48.6 °F 17% 29.92 in 10.0 mi WNW 4.6 mph - N/A   Clear
2:15 PM 100.8 °F - 47.5 °F 16% 29.91 in 10.0 mi North 3.5 mph - N/A   Clear
2:35 PM 101.7 °F - 48.0 °F 16% 29.90 in 10.0 mi NW 8.1 mph - N/A   Clear
2:55 PM 102.4 °F - 47.5 °F 16% 29.90 in 10.0 mi West 3.5 mph - N/A   Clear
3:15 PM 103.5 °F - 48.2 °F 16% 29.88 in 10.0 mi ESE 4.6 mph - N/A   Clear
3:35 PM 101.3 °F - 47.7 °F 16% 29.88 in 10.0 mi NNE 5.8 mph - N/A   Clear
3:55 PM 100.9 °F - 47.1 °F 16% 29.86 in 10.0 mi North 3.5 mph - N/A   Clear
4:15 PM 97.2 °F - 51.1 °F 21% 29.88 in 7.0 mi SSW 16.1 mph 19.6 mph N/A   Scattered Clouds
4:35 PM 97.9 °F - 51.3 °F 21% 29.86 in 7.0 mi SW 18.4 mph - N/A   Scattered Clouds
4:55 PM 101.7 °F - 49.5 °F 17% 29.86 in 10.0 mi SW 9.2 mph - N/A   Clear
5:15 PM 101.5 °F - 48.2 °F 17% 29.85 in 10.0 mi SSW 9.2 mph - N/A   Clear
5:35 PM 102.2 °F - 47.8 °F 16% 29.85 in 10.0 mi South 10.4 mph - N/A   Clear
5:55 PM 102.0 °F - 47.5 °F 16% 29.84 in 10.0 mi SE 6.9 mph - N/A   Clear
6:15 PM 101.3 °F - 46.9 °F 16% 29.84 in 10.0 mi SE 5.8 mph - N/A   Clear
6:35 PM 100.8 °F - 47.3 °F 16% 29.84 in 10.0 mi SE 3.5 mph - N/A   Clear
6:55 PM 100.4 °F - 47.7 °F 17% 29.83 in 10.0 mi SSE 5.8 mph - N/A   Clear
7:15 PM 99.5 °F - 47.5 °F 17% 29.83 in 10.0 mi South 6.9 mph - N/A   Clear
7:35 PM 98.4 °F - 47.8 °F 18% 29.83 in 10.0 mi South 5.8 mph - N/A   Clear
7:55 PM 95.9 °F - 50.0 °F 21% 29.83 in 10.0 mi SSW 5.8 mph - N/A   Clear
8:15 PM 93.7 °F - 50.0 °F 22% 29.84 in 10.0 mi South 4.6 mph - N/A   Clear
8:35 PM 90.1 °F - 50.4 °F 26% 29.84 in 10.0 mi South 6.9 mph - N/A   Clear
8:55 PM 90.0 °F - 50.0 °F 25% 29.85 in 10.0 mi South 6.9 mph - N/A   Clear
9:35 PM 87.4 °F - 51.1 °F 29% 29.86 in 10.0 mi SSW 5.8 mph - N/A   Clear
9:55 PM 86.7 °F - 51.8 °F 30% 29.88 in 10.0 mi SW 5.8 mph - N/A   Clear
10:15 PM 83.5 °F - 51.4 °F 33% 29.88 in 10.0 mi South 4.6 mph - N/A   Clear
10:55 PM 83.5 °F - 52.0 °F 34% 29.88 in 10.0 mi WSW 4.6 mph - N/A   Clear
11:15 PM 81.9 °F - 52.2 °F 36% 29.89 in 10.0 mi SE 3.5 mph - N/A   Clear
11:35 PM 81.3 °F - 51.6 °F 36% 29.89 in 10.0 mi SSE 5.8 mph - N/A   Clear
11:55 PM 80.4 °F - 51.1 °F 36% 29.89 in 10.0 mi SE 5.8 mph - N/A   Clear